Tracking 20624 objects as of 28-Mar-2020
HD Live streaming from Space Station
objects crossing your sky now

DIDO 2

Track DIDO 2 now!
10-day predictions


NORAD ID: 42000
Int'l Code: 2017-008BE
Perigee: 495.1 km
Apogee: 504.7 km
Inclination: 97.4 °
Period: 94.5 minutes
Semi major axis: 6870 km
RCS: Unknown
Launch date: February 15, 2017
Source: Israel (ISRA)
Launch site: SRIHARIKOTA (SRI)
aabbcc
Your satellite tracking list
Your tracking list is empty




NASA's NSSDC Master Catalog

Two Line Element Set (TLE):
1 42000U 17008BE  20087.45497374  .00000795  00000-0  35374-4 0  9999
2 42000  97.3635 153.8289 0006933 243.7253 116.3273 15.24341568172275
Source of the keplerian elements: AFSPC